TimeCST,TemperatureF,Dew PointF,Humidity,Sea Level PressureIn,VisibilityMPH,Wind Direction,Wind SpeedMPH,Gust SpeedMPH,PrecipitationIn,Events,Conditions,WindDirDegrees,DateUTC
12:15 AM,5.0,-0.4,78,30.05,10.0,SSE,6.9,-,N/A,,Clear,160,2012-12-22 06:15:00
12:35 AM,5.0,-0.4,78,30.04,10.0,South,9.2,-,N/A,,Clear,170,2012-12-22 06:35:00
12:55 AM,5.0,-0.4,78,30.04,10.0,South,8.1,-,N/A,,Clear,180,2012-12-22 06:55:00
1:15 AM,5.0,-0.4,78,30.03,10.0,South,8.1,-,N/A,,Clear,180,2012-12-22 07:15:00
1:35 AM,5.0,-0.4,78,30.04,10.0,South,4.6,-,N/A,,Clear,190,2012-12-22 07:35:00
1:55 AM,3.2,-0.4,85,30.03,10.0,South,5.8,-,N/A,,Clear,190,2012-12-22 07:55:00
2:15 AM,3.2,-0.4,85,30.04,10.0,South,5.8,-,N/A,,Clear,190,2012-12-22 08:15:00
2:35 AM,3.2,-0.4,85,30.04,10.0,South,6.9,-,N/A,,Clear,190,2012-12-22 08:35:00
2:55 AM,1.4,-0.4,92,30.04,10.0,SSW,5.8,-,N/A,,Clear,200,2012-12-22 08:55:00
3:15 AM,1.4,-0.4,92,30.04,10.0,SSW,3.5,-,N/A,,Clear,210,2012-12-22 09:15:00
3:35 AM,1.4,-0.4,92,30.04,10.0,WSW,4.6,-,N/A,,Clear,240,2012-12-22 09:35:00
3:55 AM,1.4,-0.4,92,30.04,10.0,West,5.8,-,N/A,,Clear,260,2012-12-22 09:55:00
4:15 AM,1.4,-0.4,92,30.05,10.0,WNW,5.8,-,N/A,,Clear,300,2012-12-22 10:15:00
4:35 AM,3.2,-0.4,85,30.05,10.0,NW,4.6,-,N/A,,Clear,310,2012-12-22 10:35:00
4:55 AM,6.8,3.2,85,30.05,10.0,North,9.2,-,N/A,,Clear,350,2012-12-22 10:55:00
5:15 AM,8.6,5.0,85,30.07,10.0,NNW,10.4,-,N/A,,Clear,340,2012-12-22 11:15:00
5:35 AM,8.6,5.0,85,30.07,10.0,NNW,13.8,-,N/A,,Clear,340,2012-12-22 11:35:00
5:55 AM,10.4,5.0,79,30.08,10.0,NNW,16.1,24.2,N/A,,Clear,340,2012-12-22 11:55:00
6:15 AM,10.4,5.0,79,30.08,10.0,North,17.3,23.0,N/A,,Mostly Cloudy,350,2012-12-22 12:15:00
6:35 AM,10.4,5.0,79,30.09,10.0,NNW,18.4,25.3,N/A,,Overcast,340,2012-12-22 12:35:00
6:55 AM,10.4,5.0,79,30.10,9.0,North,16.1,25.3,N/A,,Overcast,350,2012-12-22 12:55:00
7:15 AM,8.6,5.0,85,30.10,6.0,NNW,15.0,24.2,N/A,Rain,Freezing Rain,340,2012-12-22 13:15:00
7:35 AM,10.4,6.8,85,30.11,5.0,North,17.3,27.6,N/A,Rain,Freezing Rain,350,2012-12-22 13:35:00
7:55 AM,8.6,5.0,85,30.12,7.0,NNW,21.9,27.6,N/A,Rain,Freezing Rain,340,2012-12-22 13:55:00
8:15 AM,8.6,5.0,85,30.12,3.0,North,23.0,28.8,N/A,Rain,Freezing Rain,350,2012-12-22 14:15:00
8:35 AM,8.6,5.0,85,30.13,3.0,North,18.4,28.8,N/A,Rain,Freezing Rain,350,2012-12-22 14:35:00
8:55 AM,10.4,6.8,85,30.13,3.0,North,18.4,27.6,N/A,Rain,Freezing Rain,350,2012-12-22 14:55:00
9:15 AM,10.4,6.8,85,30.14,4.0,North,17.3,-,N/A,Snow,Light Snow,350,2012-12-22 15:15:00
9:35 AM,10.4,6.8,85,30.15,1.8,North,17.3,21.9,N/A,Snow,Light Snow,350,2012-12-22 15:35:00
9:55 AM,10.4,6.8,85,30.14,1.8,North,18.4,23.0,N/A,Snow,Light Snow,360,2012-12-22 15:55:00
10:15 AM,10.4,6.8,85,30.15,2.0,North,18.4,26.5,N/A,Snow,Light Snow,350,2012-12-22 16:15:00
10:35 AM,10.4,8.6,92,30.15,2.0,North,17.3,23.0,N/A,Snow,Light Snow,350,2012-12-22 16:35:00
10:55 AM,12.2,8.6,85,30.16,2.5,North,16.1,21.9,N/A,Snow,Light Snow,350,2012-12-22 16:55:00
11:15 AM,12.2,8.6,85,30.15,1.8,North,19.6,26.5,N/A,Snow,Light Snow,350,2012-12-22 17:15:00
11:35 AM,12.2,8.6,85,30.15,1.2,North,21.9,25.3,N/A,Snow,Light Snow,350,2012-12-22 17:35:00
11:55 AM,14.0,8.6,79,30.14,1.0,North,20.7,-,N/A,Snow,Light Snow,350,2012-12-22 17:55:00
12:15 PM,12.2,8.6,85,30.15,1.0,North,19.6,26.5,N/A,Snow,Light Snow,350,2012-12-22 18:15:00
12:35 PM,12.2,8.6,85,30.15,1.0,North,20.7,24.2,N/A,Snow,Light Snow,350,2012-12-22 18:35:00
12:55 PM,10.4,6.8,85,30.16,1.8,North,18.4,24.2,N/A,Snow,Light Snow,350,2012-12-22 18:55:00
1:15 PM,10.4,6.8,85,30.15,1.0,North,20.7,26.5,N/A,Snow,Light Snow,350,2012-12-22 19:15:00
1:35 PM,10.4,6.8,85,30.16,1.0,North,16.1,-,N/A,Snow,Light Snow,350,2012-12-22 19:35:00
1:55 PM,10.4,6.8,85,30.17,1.0,NNW,16.1,23.0,N/A,Snow,Light Snow,340,2012-12-22 19:55:00
2:15 PM,10.4,5.0,79,30.17,2.5,NNW,20.7,25.3,N/A,Snow,Light Snow,340,2012-12-22 20:15:00
2:35 PM,10.4,5.0,79,30.17,6.0,NNW,18.4,25.3,N/A,Rain,Freezing Rain,340,2012-12-22 20:35:00
2:55 PM,10.4,5.0,79,30.18,6.0,NNW,17.3,25.3,N/A,Rain,Freezing Rain,340,2012-12-22 20:55:00
3:15 PM,10.4,5.0,79,30.18,8.0,NNW,19.6,23.0,N/A,Rain,Freezing Rain,340,2012-12-22 21:15:00
3:35 PM,8.6,5.0,85,30.19,3.0,North,17.3,27.6,N/A,Rain,Freezing Rain,350,2012-12-22 21:35:00
3:55 PM,8.6,5.0,85,30.20,1.0,North,16.1,23.0,N/A,Snow,Light Snow,360,2012-12-22 21:55:00
4:15 PM,8.6,5.0,85,30.21,3.0,NNW,17.3,21.9,N/A,Rain,Freezing Rain,340,2012-12-22 22:15:00
4:35 PM,8.6,5.0,85,30.22,4.0,NNW,17.3,20.7,N/A,Rain,Freezing Rain,340,2012-12-22 22:35:00
4:55 PM,8.6,5.0,85,30.22,8.0,NNW,17.3,-,N/A,Snow,Light Snow,340,2012-12-22 22:55:00
5:15 PM,8.6,5.0,85,30.22,8.0,North,16.1,20.7,N/A,Rain,Freezing Rain,350,2012-12-22 23:15:00
5:35 PM,8.6,5.0,85,30.22,5.0,North,17.3,21.9,N/A,Rain,Freezing Rain,360,2012-12-22 23:35:00
5:55 PM,6.8,5.0,92,30.23,5.0,North,13.8,-,N/A,,Overcast,350,2012-12-22 23:55:00
6:15 PM,8.6,5.0,85,30.24,3.0,North,11.5,-,N/A,Snow,Light Snow,350,2012-12-23 00:15:00
6:35 PM,6.8,3.2,85,30.24,8.0,North,13.8,-,N/A,,Overcast,360,2012-12-23 00:35:00
6:55 PM,6.8,1.4,79,30.24,9.0,North,15.0,-,N/A,,Overcast,350,2012-12-23 00:55:00
7:15 PM,6.8,1.4,79,30.24,10.0,North,12.7,-,N/A,,Overcast,360,2012-12-23 01:15:00
7:35 PM,6.8,1.4,79,30.24,10.0,North,15.0,19.6,N/A,,Overcast,350,2012-12-23 01:35:00
7:55 PM,6.8,3.2,85,30.24,9.0,North,16.1,-,N/A,,Overcast,360,2012-12-23 01:55:00
8:15 PM,6.8,3.2,85,30.24,8.0,North,16.1,21.9,N/A,,Overcast,360,2012-12-23 02:15:00
8:35 PM,6.8,1.4,79,30.24,8.0,North,15.0,-,N/A,,Overcast,360,2012-12-23 02:35:00
8:55 PM,5.0,1.4,85,30.24,7.0,North,18.4,23.0,N/A,,Overcast,360,2012-12-23 02:55:00
9:15 PM,5.0,-0.4,78,30.24,10.0,North,15.0,-,N/A,,Overcast,360,2012-12-23 03:15:00
9:35 PM,3.2,-0.4,85,30.24,10.0,North,11.5,-,N/A,,Overcast,360,2012-12-23 03:35:00
9:55 PM,3.2,-0.4,85,30.24,10.0,North,15.0,-,N/A,,Overcast,360,2012-12-23 03:55:00
10:15 PM,1.4,-0.4,92,30.25,10.0,North,12.7,-,N/A,,Overcast,350,2012-12-23 04:15:00
10:35 PM,1.4,-0.4,92,30.25,10.0,North,12.7,-,N/A,,Overcast,350,2012-12-23 04:35:00
10:55 PM,1.4,-2.2,85,30.26,9.0,North,12.7,-,N/A,,Overcast,350,2012-12-23 04:55:00
11:15 PM,1.4,-2.2,85,30.27,9.0,North,11.5,-,N/A,,Overcast,350,2012-12-23 05:15:00
11:35 PM,1.4,-2.2,85,30.27,7.0,North,11.5,-,N/A,,Overcast,350,2012-12-23 05:35:00
11:55 PM,-0.4,-2.2,92,30.27,8.0,North,11.5,-,N/A,,Overcast,350,2012-12-23 05:55:00